User: anonymous   Login
Location: Newark
(52.2090°N, 4.1550°W)
Time: 16:49:18
(UTC+00:00)
Language:

Transit 2A - Orbit

View from above orbital plane
View from above orbital plane
View from above satellite
View from above satellite

Ground track
Ground track

The orbit data is extracted from the following two-line orbital elements,

1    45U 60007A   19259.86633140 -.00000056 +00000-0 +12850-4 0  9991
2    45 066.6962 024.4762 0252887 157.0887 204.1737 14.33649140026477
Epoch (UTC): 16 September 2019 20:47:31
Eccentricity: 0.0252887
inclination: 66.6962°
perigee height: 598 km
apogee height: 960 km
right ascension of ascending node: 24.4762°
argument of perigee: 157.0887°
revolutions per day: 14.33649140
mean anomaly at epoch: 204.1737°
orbit number at epoch: 2647

The dashed part of the orbit path shows where the satellite is in the earth's shadow,  

DLR